Weather History for KMYV - October, 2013

Change the Weather History Date:

Saturday, October 26, 2013

  Actual Average Record
Temperature  
Mean Temperature 62 °F -  
Max Temperature 80 °F 76 °F 93 °F (2003)
Min Temperature 44 °F 49 °F 39 °F (1951)
Degree Days  
Heating Degree Days 4    
Growing Degree Days 12 (Base 50)    
Moisture  
Dew Point 42 °F    
Average Humidity 55    
Maximum Humidity 82    
Minimum Humidity 26    
Precipitation  
Precipitation 0.00 in - - ()
Sea Level Pressure  
Sea Level Pressure 30.08 in    
Wind  
Wind Speed 2 mph (NNE)    
Max Wind Speed 6 mph    
Max Gust Speed -    
Visibility 10 miles    
Events      
Averages and records for this station are not official NWS values.
T = Trace of Precipitation, MM = Missing Value Source: NWS Daily Summary

Daily Weather History Graph

Daily Weather History Graph

Search for Another Location

Airport or City:

Trip Planner

Search our weather history database for the weather conditions in past years. The results will help you decide how hot, cold, wet, or windy it might be!

Date:

Astronomy

Oct. 26, 2013 Rise Set
Actual Time 7:27 AM PDT 6:12 PM PDT
Civil Twilight 7:00 AM PDT 6:39 PM PDT
Nautical Twilight 6:28 AM PDT 7:10 PM PDT
Astronomical Twilight 5:57 AM PDT 7:41 PM PDT
Moon No Moon Rise 1:46 PM PDT (10/26)
Length of Visible Light 11h 39m
Length of Day
10h 44m
Waning Gibbous, 52% of the Moon is Illuminated
Oct 26
Waning Gibbous
Oct 26
Last Quarter
Nov 3
New
Nov 9
First Quarter
Nov 17
Full

Hourly Weather History & Observations

Time (PDT) Temp. Dew Point Humidity Pressure Visibility Wind Dir Wind Speed Gust Speed Precip Events Conditions
12:53 AM 51.1 °F 43.0 °F 74% 30.09 in 10.0 mi ESE 3.5 mph - N/A   Clear
1:53 AM 51.1 °F 43.0 °F 74% 30.11 in 10.0 mi East 3.5 mph - N/A   Clear
2:53 AM 50.0 °F 44.1 °F 80% 30.12 in 10.0 mi East 4.6 mph - N/A   Clear
3:53 AM 48.9 °F 43.0 °F 80% 30.12 in 10.0 mi Calm Calm - N/A   Clear
4:53 AM 46.9 °F 41.0 °F 80% 30.12 in 10.0 mi Calm Calm - N/A   Clear
5:53 AM 45.0 °F 39.9 °F 82% 30.13 in 10.0 mi Calm Calm - N/A   Clear
6:53 AM 45.0 °F 39.9 °F 82% 30.14 in 10.0 mi Calm Calm - N/A   Clear
7:53 AM 44.1 °F 39.0 °F 82% 30.15 in 10.0 mi Calm Calm - N/A   Clear
8:53 AM 55.9 °F 41.0 °F 57% 30.16 in 10.0 mi Calm Calm - N/A   Clear
9:53 AM 62.1 °F 39.9 °F 44% 30.17 in 10.0 mi Calm Calm - N/A   Clear
10:53 AM 66.9 °F 37.0 °F 33% 30.16 in 10.0 mi Calm Calm - N/A   Clear
11:53 AM 72.0 °F 39.0 °F 30% 30.15 in 10.0 mi Calm Calm - N/A   Clear
12:53 PM 73.9 °F 42.1 °F 32% 30.12 in 10.0 mi NW 5.8 mph - N/A   Clear
1:53 PM 75.9 °F 42.1 °F 30% 30.08 in 10.0 mi Variable 3.5 mph - N/A   Clear
2:53 PM 79.0 °F 42.1 °F 27% 30.06 in 10.0 mi WNW 5.8 mph - N/A   Clear
3:53 PM 79.0 °F 41.0 °F 26% 30.04 in 10.0 mi Calm Calm - N/A   Clear
4:53 PM 79.0 °F 42.1 °F 27% 30.02 in 10.0 mi West 3.5 mph - N/A   Clear
5:53 PM 75.9 °F 42.1 °F 30% 30.01 in 10.0 mi Calm Calm - N/A   Clear
6:53 PM 64.9 °F 44.1 °F 47% 30.01 in 10.0 mi Calm Calm - N/A   Clear
7:53 PM 60.1 °F 41.0 °F 49% 30.01 in 8.0 mi Calm Calm - N/A   Clear
8:53 PM 57.0 °F 43.0 °F 59% 30.01 in 8.0 mi Calm Calm - N/A   Clear
9:53 PM 57.0 °F 44.1 °F 62% 30.01 in 10.0 mi East 3.5 mph - N/A   Clear
10:53 PM 54.0 °F 43.0 °F 66% 30.01 in 10.0 mi Calm Calm - N/A   Clear
11:53 PM 48.0 °F 41.0 °F 77% 30.01 in 9.0 mi WNW 3.5 mph - N/A   Clear